Time,TemperatureF,DewpointF,PressureIn,WindDirection,WindDirectionDegrees,WindSpeedMPH,WindSpeedGustMPH,Humidity,HourlyPrecipIn,Conditions,Clouds,dailyrainin,SoftwareType,DateUTC
2013-09-09 00:04:00,47.8,40.3,-100.00,ENE,68,0.0,0.0,75,0.00,,,0.00,WSDL version 420,2013-09-09 04:04:00,
2013-09-09 00:06:00,47.8,40.3,-100.00,ENE,68,0.0,0.0,75,0.00,,,0.00,WSDL version 420,2013-09-09 04:06:00,
2013-09-09 00:08:00,47.8,40.3,29.35,ENE,68,0.0,0.0,75,0.00,,,0.00,WSDL version 420,2013-09-09 04:08:00,
2013-09-09 00:10:00,47.7,40.2,29.32,ENE,68,0.0,0.0,75,-99.99,,,-99.99,WSDL version 420,2013-09-09 04:10:00,
2013-09-09 00:17:00,47.7,40.4,-100.00,ENE,68,0.0,0.0,76,0.00,,,0.00,WSDL version 420,2013-09-09 04:17:00,
2013-09-09 00:24:00,47.7,40.5,-100.00,ENE,68,0.0,0.0,76,0.00,,,0.00,WSDL version 420,2013-09-09 04:24:00,
2013-09-09 00:32:00,47.7,40.8,-100.00,ENE,68,0.0,0.0,77,-99.99,,,-99.99,WSDL version 420,2013-09-09 04:32:00,
2013-09-09 00:38:00,47.7,40.8,-100.00,ENE,68,0.0,0.0,77,0.00,,,0.00,WSDL version 420,2013-09-09 04:38:00,
2013-09-09 00:43:00,47.8,41.3,29.29,NE,45,0.0,0.0,78,0.00,,,0.00,WSDL version 420,2013-09-09 04:43:00,
2013-09-09 00:45:00,47.8,41.3,-100.00,NE,45,0.0,0.0,78,0.00,,,0.00,WSDL version 420,2013-09-09 04:45:00,
2013-09-09 00:51:00,47.7,41.1,29.29,ENE,68,0.0,0.0,78,0.00,,,0.00,WSDL version 420,2013-09-09 04:51:00,
2013-09-09 00:54:00,47.8,41.2,-100.00,ENE,68,0.0,0.0,78,0.00,,,0.00,WSDL version 420,2013-09-09 04:54:00,
2013-09-09 01:00:00,47.8,41.5,29.29,ENE,68,0.0,0.0,79,0.00,,,0.00,WSDL version 420,2013-09-09 05:00:00,
2013-09-09 01:06:00,47.8,41.5,-100.00,ENE,68,0.0,0.0,79,0.00,,,0.00,WSDL version 420,2013-09-09 05:06:00,
2013-09-09 01:13:00,48.0,41.8,-100.00,ENE,68,0.0,0.0,79,-99.99,,,-99.99,WSDL version 420,2013-09-09 05:13:00,
2013-09-09 01:19:00,48.0,42.2,29.29,ENE,68,0.0,0.0,80,0.00,,,0.00,WSDL version 420,2013-09-09 05:19:00,
2013-09-09 01:25:00,48.0,42.2,29.32,ENE,68,0.0,0.0,80,-99.99,,,-99.99,WSDL version 420,2013-09-09 05:25:00,
2013-09-09 01:31:00,48.0,42.2,-100.00,ENE,68,0.0,0.0,80,0.00,,,0.00,WSDL version 420,2013-09-09 05:31:00,
2013-09-09 01:36:00,48.0,42.5,-100.00,ENE,68,0.0,0.0,81,0.00,,,0.00,WSDL version 420,2013-09-09 05:36:00,
2013-09-09 01:41:00,48.0,42.5,-100.00,ENE,68,0.0,0.0,81,0.00,,,0.00,WSDL version 420,2013-09-09 05:41:00,
2013-09-09 01:48:00,48.2,42.7,29.32,ENE,68,0.0,0.0,81,0.00,,,0.00,WSDL version 420,2013-09-09 05:48:00,
2013-09-09 01:53:00,48.2,43.0,29.32,ENE,68,0.0,0.0,82,0.00,,,0.00,WSDL version 420,2013-09-09 05:53:00,
2013-09-09 01:59:00,48.3,43.2,29.32,ENE,68,0.0,0.0,82,0.00,,,0.00,WSDL version 420,2013-09-09 05:59:00,
2013-09-09 02:05:00,48.7,43.9,-100.00,ENE,68,0.0,0.0,83,0.00,,,0.00,WSDL version 420,2013-09-09 06:05:00,
2013-09-09 02:11:00,48.8,44.2,29.32,ENE,68,0.0,0.0,84,0.00,,,0.00,WSDL version 420,2013-09-09 06:11:00,
2013-09-09 02:18:00,49.1,44.6,-100.00,ENE,68,0.0,0.0,84,0.00,,,0.00,WSDL version 420,2013-09-09 06:18:00,
2013-09-09 02:27:00,49.3,44.8,-100.00,ESE,113,0.0,0.0,84,0.00,,,0.00,WSDL version 420,2013-09-09 06:27:00,
2013-09-09 02:35:00,49.1,44.6,-100.00,ESE,113,0.0,0.0,84,0.00,,,0.00,WSDL version 420,2013-09-09 06:35:00,
2013-09-09 02:41:00,49.1,44.6,29.32,ESE,113,0.0,0.0,84,0.00,,,0.00,WSDL version 420,2013-09-09 06:41:00,
2013-09-09 02:46:00,48.9,44.4,29.32,ESE,113,0.0,0.0,84,-99.99,,,-99.99,WSDL version 420,2013-09-09 06:46:00,
2013-09-09 02:54:00,48.8,44.4,29.32,ESE,113,0.0,0.0,84,0.00,,,0.00,WSDL version 420,2013-09-09 06:54:00,
2013-09-09 03:01:00,48.7,44.3,29.32,ESE,113,0.0,0.0,84,0.00,,,0.00,WSDL version 420,2013-09-09 07:01:00,
2013-09-09 03:10:00,48.7,44.3,-100.00,ESE,113,0.0,0.0,84,0.00,,,0.00,WSDL version 420,2013-09-09 07:10:00,
2013-09-09 03:16:00,48.6,44.1,-100.00,ESE,113,0.0,0.0,84,0.00,,,0.00,WSDL version 420,2013-09-09 07:16:00,
2013-09-09 03:23:00,48.6,44.4,29.32,ESE,113,0.0,0.0,86,0.00,,,0.00,WSDL version 420,2013-09-09 07:23:00,
2013-09-09 03:33:00,48.6,44.4,29.32,ESE,113,0.0,0.0,86,0.00,,,0.00,WSDL version 420,2013-09-09 07:33:00,
2013-09-09 03:40:00,48.7,44.6,29.32,ESE,113,0.0,0.0,86,0.00,,,0.00,WSDL version 420,2013-09-09 07:40:00,
2013-09-09 03:46:00,48.7,44.6,-100.00,East,90,0.0,0.0,86,0.00,,,0.00,WSDL version 420,2013-09-09 07:46:00,
2013-09-09 03:51:00,48.6,44.8,-100.00,East,90,0.0,0.0,87,-99.99,,,-99.99,WSDL version 420,2013-09-09 07:51:00,
2013-09-09 03:57:00,48.6,44.8,29.32,East,90,0.0,0.0,87,0.00,,,0.00,WSDL version 420,2013-09-09 07:57:00,
2013-09-09 04:03:00,48.4,44.3,29.32,East,90,0.0,0.0,86,0.00,,,0.00,WSDL version 420,2013-09-09 08:03:00,
2013-09-09 04:09:00,48.4,44.3,-100.00,East,96,0.0,0.0,86,0.00,,,0.00,WSDL version 420,2013-09-09 08:09:00,
2013-09-09 04:14:00,48.5,44.4,-100.00,SSE,158,0.0,0.0,86,0.00,,,0.00,WSDL version 420,2013-09-09 08:14:00,
2013-09-09 04:21:00,48.6,44.8,-100.00,SSE,158,0.0,0.0,87,0.00,,,0.00,WSDL version 420,2013-09-09 08:21:00,
2013-09-09 04:27:00,48.6,44.8,29.32,SSE,158,0.0,0.0,87,0.00,,,0.00,WSDL version 420,2013-09-09 08:27:00,
2013-09-09 04:34:00,48.6,44.8,-100.00,SSE,158,0.0,0.0,87,0.00,,,0.00,WSDL version 420,2013-09-09 08:34:00,
2013-09-09 04:41:00,48.7,45.3,-100.00,SSE,158,0.0,0.0,88,-99.99,,,-99.99,WSDL version 420,2013-09-09 08:41:00,
2013-09-09 04:47:00,48.7,45.3,29.35,ESE,113,0.0,0.0,88,0.00,,,0.00,WSDL version 420,2013-09-09 08:47:00,
2013-09-09 04:53:00,48.7,45.4,-100.00,SSE,158,0.0,0.0,89,-99.99,,,-99.99,WSDL version 420,2013-09-09 08:53:00,
2013-09-09 04:58:00,48.9,45.8,-100.00,SSE,158,0.0,0.0,89,0.00,,,0.00,WSDL version 420,2013-09-09 08:58:00,
2013-09-09 05:04:00,48.8,45.7,29.35,ESE,113,0.0,0.0,89,0.00,,,0.00,WSDL version 420,2013-09-09 09:04:00,
2013-09-09 05:18:00,48.7,45.6,29.35,ESE,113,0.0,0.0,89,0.00,,,0.00,WSDL version 420,2013-09-09 09:18:00,
2013-09-09 05:25:00,48.7,45.6,29.35,ESE,113,0.0,0.0,89,0.00,,,0.00,WSDL version 420,2013-09-09 09:25:00,
2013-09-09 05:34:00,48.7,45.6,29.35,SW,218,0.0,0.0,89,0.00,,,0.00,WSDL version 420,2013-09-09 09:34:00,
2013-09-09 05:42:00,48.7,45.6,-100.00,SSW,203,0.0,0.0,89,0.00,,,0.00,WSDL version 420,2013-09-09 09:42:00,
2013-09-09 05:50:00,48.7,45.9,-100.00,SSW,203,0.0,0.0,90,0.00,,,0.00,WSDL version 420,2013-09-09 09:50:00,
2013-09-09 05:56:00,48.7,45.9,-100.00,SW,216,0.0,0.0,90,0.00,,,0.00,WSDL version 420,2013-09-09 09:56:00,
2013-09-09 06:02:00,48.7,45.9,-100.00,SSW,203,0.0,0.0,90,0.00,,,0.00,WSDL version 420,2013-09-09 10:02:00,
2013-09-09 06:09:00,48.6,45.8,29.35,SSE,158,0.0,0.0,90,0.00,,,0.00,WSDL version 420,2013-09-09 10:09:00,
2013-09-09 06:16:00,48.6,45.8,-100.00,SSW,203,0.0,0.0,90,0.00,,,0.00,WSDL version 420,2013-09-09 10:16:00,
2013-09-09 06:24:00,48.6,45.8,29.35,SSW,203,0.0,0.0,90,0.00,,,0.00,WSDL version 420,2013-09-09 10:24:00,
2013-09-09 06:34:00,48.7,45.9,29.35,SSW,203,0.0,0.0,90,0.00,,,0.00,WSDL version 420,2013-09-09 10:34:00,
2013-09-09 06:40:00,48.6,45.8,29.35,SSW,203,0.0,0.0,90,-99.99,,,-99.99,WSDL version 420,2013-09-09 10:40:00,
2013-09-09 06:46:00,48.6,45.8,29.35,SSW,203,0.0,0.0,90,0.00,,,0.00,WSDL version 420,2013-09-09 10:46:00,
2013-09-09 06:51:00,48.6,45.8,29.35,SSW,203,0.0,0.0,90,0.00,,,0.00,WSDL version 420,2013-09-09 10:51:00,
2013-09-09 06:57:00,48.6,45.8,29.35,SSW,203,0.0,0.0,90,0.00,,,0.00,WSDL version 420,2013-09-09 10:57:00,
2013-09-09 07:04:00,48.6,46.1,29.35,SSW,203,0.0,0.0,91,0.00,,,0.00,WSDL version 420,2013-09-09 11:04:00,
2013-09-09 07:12:00,48.9,46.4,-100.00,SSW,203,0.0,0.0,91,0.00,,,0.00,WSDL version 420,2013-09-09 11:12:00,
2013-09-09 07:18:00,49.2,46.9,-100.00,SW,222,0.0,0.0,92,0.00,,,0.00,WSDL version 420,2013-09-09 11:18:00,
2013-09-09 07:28:00,49.8,48.0,-100.00,SW,225,0.0,0.0,93,0.00,,,0.00,WSDL version 420,2013-09-09 11:28:00,
2013-09-09 07:36:00,50.0,47.8,29.35,SW,225,0.0,0.0,92,0.00,,,0.00,WSDL version 420,2013-09-09 11:36:00,
2013-09-09 07:45:00,50.4,48.2,-100.00,WSW,248,0.0,3.4,92,0.00,,,0.00,WSDL version 420,2013-09-09 11:45:00,
2013-09-09 07:52:00,50.6,48.5,-100.00,SW,225,0.0,0.0,92,0.00,,,0.00,WSDL version 420,2013-09-09 11:52:00,
2013-09-09 07:58:00,50.9,48.4,29.35,SW,214,0.0,0.0,91,0.00,,,0.00,WSDL version 420,2013-09-09 11:58:00,
2013-09-09 08:04:00,51.3,48.5,29.35,SW,225,0.0,0.0,90,0.00,,,0.00,WSDL version 420,2013-09-09 12:04:00,
2013-09-09 08:10:00,51.6,48.1,-100.00,SW,225,0.0,1.3,88,0.00,,,0.00,WSDL version 420,2013-09-09 12:10:00,
2013-09-09 08:16:00,51.7,47.1,-100.00,SW,214,0.0,1.3,84,0.00,,,0.00,WSDL version 420,2013-09-09 12:16:00,
2013-09-09 08:22:00,52.0,46.7,29.35,SW,234,0.0,0.0,82,-99.99,,,-99.99,WSDL version 420,2013-09-09 12:22:00,
2013-09-09 08:27:00,52.4,46.8,29.35,SW,214,0.0,0.0,81,0.00,,,0.00,WSDL version 420,2013-09-09 12:27:00,
2013-09-09 08:33:00,52.6,47.0,-100.00,SW,218,0.0,0.0,81,0.00,,,0.00,WSDL version 420,2013-09-09 12:33:00,
2013-09-09 08:39:00,53.2,47.2,29.35,SW,225,0.0,0.0,80,0.00,,,0.00,WSDL version 420,2013-09-09 12:39:00,
2013-09-09 08:44:00,53.4,47.4,29.35,SW,216,0.0,0.0,80,0.00,,,0.00,WSDL version 420,2013-09-09 12:44:00,
2013-09-09 08:50:00,54.1,47.8,29.35,SW,217,0.0,1.1,79,0.00,,,0.00,WSDL version 420,2013-09-09 12:50:00,
2013-09-09 08:56:00,54.5,47.4,29.35,WSW,244,0.0,1.1,77,0.00,,,0.00,WSDL version 420,2013-09-09 12:56:00,
2013-09-09 09:01:00,54.9,47.3,-100.00,SSW,211,0.0,1.1,75,0.00,,,0.00,WSDL version 420,2013-09-09 13:01:00,
2013-09-09 09:07:00,55.7,47.0,-100.00,SW,225,0.3,1.1,71,0.00,,,0.00,WSDL version 420,2013-09-09 13:07:00,
2013-09-09 09:15:00,56.5,45.8,-100.00,SSW,212,0.9,3.6,65,0.00,,,0.00,WSDL version 420,2013-09-09 13:15:00,
2013-09-09 09:22:00,57.0,44.6,-100.00,SW,225,0.4,3.6,63,0.00,,,0.00,WSDL version 420,2013-09-09 13:22:00,
2013-09-09 09:28:00,57.4,44.9,-100.00,SW,231,0.2,2.2,62,-99.99,,,-99.99,WSDL version 420,2013-09-09 13:28:00,
2013-09-09 09:34:00,57.7,43.5,-100.00,SSW,203,0.0,1.1,57,0.00,,,0.00,WSDL version 420,2013-09-09 13:34:00,
2013-09-09 09:41:00,57.9,42.1,-100.00,SW,222,0.0,1.3,55,0.00,,,0.00,WSDL version 420,2013-09-09 13:41:00,
2013-09-09 09:46:00,58.1,40.6,-100.00,WSW,240,0.1,1.3,52,-99.99,,,-99.99,WSDL version 420,2013-09-09 13:46:00,
2013-09-09 09:53:00,58.3,41.5,-100.00,WSW,239,0.0,2.5,54,-99.99,,,-99.99,WSDL version 420,2013-09-09 13:53:00,
2013-09-09 09:59:00,59.0,41.2,29.32,WSW,248,0.6,3.4,51,0.00,,,0.00,WSDL version 420,2013-09-09 13:59:00,
2013-09-09 10:07:00,59.4,41.5,-100.00,SW,218,0.1,3.4,51,0.00,,,0.00,WSDL version 420,2013-09-09 14:07:00,
2013-09-09 10:15:00,59.7,40.0,-100.00,SW,225,0.9,2.2,48,0.00,,,0.00,WSDL version 420,2013-09-09 14:15:00,
2013-09-09 10:24:00,60.8,41.5,-100.00,WSW,248,0.0,1.6,49,0.00,,,0.00,WSDL version 420,2013-09-09 14:24:00,
2013-09-09 10:32:00,62.4,41.4,-100.00,WSW,243,0.4,2.9,46,0.00,,,0.00,WSDL version 420,2013-09-09 14:32:00,
2013-09-09 10:46:00,66.1,42.1,-100.00,SW,214,0.9,2.5,41,0.00,,,0.00,WSDL version 420,2013-09-09 14:46:00,
2013-09-09 10:52:00,66.7,41.7,-100.00,WSW,243,0.0,2.9,39,0.00,,,0.00,WSDL version 420,2013-09-09 14:52:00,
2013-09-09 10:58:00,67.3,40.7,-100.00,SW,236,0.2,2.9,37,0.00,,,0.00,WSDL version 420,2013-09-09 14:58:00,
2013-09-09 11:03:00,67.3,39.2,29.32,SW,215,0.6,2.9,35,0.00,,,0.00,WSDL version 420,2013-09-09 15:03:00,
2013-09-09 11:09:00,67.2,38.8,29.29,SW,235,0.0,2.9,36,0.00,,,0.00,WSDL version 420,2013-09-09 15:09:00,
2013-09-09 11:15:00,68.0,38.6,-100.00,SW,221,0.5,1.6,34,0.00,,,0.00,WSDL version 420,2013-09-09 15:15:00,
2013-09-09 11:22:00,68.4,38.9,-100.00,WSW,238,0.1,2.9,34,0.00,,,0.00,WSDL version 420,2013-09-09 15:22:00,
2013-09-09 11:28:00,68.3,39.3,-100.00,SSW,194,0.0,0.0,35,0.00,,,0.00,WSDL version 420,2013-09-09 15:28:00,
2013-09-09 11:34:00,70.0,40.7,-100.00,WSW,239,0.0,2.0,34,0.00,,,0.00,WSDL version 420,2013-09-09 15:34:00,
2013-09-09 11:39:00,71.4,41.6,-100.00,SW,225,0.0,2.0,34,0.00,,,0.00,WSDL version 420,2013-09-09 15:39:00,
2013-09-09 11:45:00,72.1,41.3,29.32,SW,225,1.0,2.5,32,0.00,,,0.00,WSDL version 420,2013-09-09 15:45:00,
2013-09-09 11:54:00,74.2,42.5,-100.00,SW,225,0.0,2.0,32,0.00,,,0.00,WSDL version 420,2013-09-09 15:54:00,
2013-09-09 12:00:00,74.6,42.8,29.32,SW,221,0.0,1.1,32,0.00,,,0.00,WSDL version 420,2013-09-09 16:00:00,
2013-09-09 12:06:00,74.9,42.3,-100.00,SW,221,0.0,2.2,31,0.00,,,0.00,WSDL version 420,2013-09-09 16:06:00,
2013-09-09 12:13:00,75.7,42.9,29.32,WSW,239,0.0,0.0,31,0.00,,,0.00,WSDL version 420,2013-09-09 16:13:00,
2013-09-09 12:19:00,75.6,42.7,-100.00,SW,222,0.0,0.9,31,0.00,,,0.00,WSDL version 420,2013-09-09 16:19:00,
2013-09-09 12:26:00,77.2,44.2,-100.00,SW,221,0.0,0.0,31,0.00,,,0.00,WSDL version 420,2013-09-09 16:26:00,
2013-09-09 12:32:00,77.5,44.0,29.29,West,276,0.0,0.0,30,0.00,,,0.00,WSDL version 420,2013-09-09 16:32:00,
2013-09-09 12:37:00,76.7,43.4,29.29,SW,233,0.0,0.0,31,0.00,,,0.00,WSDL version 420,2013-09-09 16:37:00,
2013-09-09 12:47:00,77.9,44.0,-100.00,SW,216,0.0,0.0,30,0.00,,,0.00,WSDL version 420,2013-09-09 16:47:00,
2013-09-09 12:52:00,78.4,44.4,29.29,SW,225,0.0,0.0,30,0.00,,,0.00,WSDL version 420,2013-09-09 16:52:00,
2013-09-09 12:58:00,78.8,44.8,-100.00,SW,221,0.0,0.0,30,0.00,,,0.00,WSDL version 420,2013-09-09 16:58:00,
2013-09-09 13:04:00,79.0,45.0,29.29,West,261,0.0,0.0,30,0.00,,,0.00,WSDL version 420,2013-09-09 17:04:00,
2013-09-09 13:10:00,76.5,43.6,-100.00,WSW,248,0.0,0.0,31,0.00,,,0.00,WSDL version 420,2013-09-09 17:10:00,
2013-09-09 13:16:00,77.6,44.2,29.29,SW,221,0.0,0.0,31,0.00,,,0.00,WSDL version 420,2013-09-09 17:16:00,
2013-09-09 13:22:00,79.7,45.6,-100.00,SW,225,0.0,0.0,30,0.00,,,0.00,WSDL version 420,2013-09-09 17:22:00,
2013-09-09 13:27:00,81.2,46.9,-100.00,SW,231,0.0,0.0,30,0.00,,,0.00,WSDL version 420,2013-09-09 17:27:00,
2013-09-09 13:32:00,82.0,47.6,-100.00,WNW,293,0.0,0.0,30,0.00,,,0.00,WSDL version 420,2013-09-09 17:32:00,
2013-09-09 13:41:00,82.5,47.1,-100.00,SW,225,0.0,0.0,29,-99.99,,,-99.99,WSDL version 420,2013-09-09 17:41:00,
2013-09-09 13:48:00,83.1,47.6,-100.00,SW,216,0.0,0.0,29,-99.99,,,-99.99,WSDL version 420,2013-09-09 17:48:00,
2013-09-09 13:54:00,83.8,48.2,29.32,SW,225,0.0,0.0,29,0.00,,,0.00,WSDL version 420,2013-09-09 17:54:00,
2013-09-09 14:00:00,85.6,49.8,29.32,SSW,206,0.0,0.0,29,0.00,,,0.00,WSDL version 420,2013-09-09 18:00:00,
2013-09-09 14:05:00,85.3,48.5,29.32,SW,225,0.0,0.0,28,0.00,,,0.00,WSDL version 420,2013-09-09 18:05:00,
2013-09-09 14:14:00,84.9,48.2,-100.00,SW,221,0.0,0.0,28,0.00,,,0.00,WSDL version 420,2013-09-09 18:14:00,
2013-09-09 14:20:00,83.4,46.4,29.32,SW,225,0.0,0.0,27,0.00,,,0.00,WSDL version 420,2013-09-09 18:20:00,
2013-09-09 14:28:00,81.9,46.1,-100.00,WSW,244,0.0,0.0,29,0.00,,,0.00,WSDL version 420,2013-09-09 18:28:00,
2013-09-09 14:38:00,81.8,46.5,29.29,WSW,242,0.0,0.0,29,0.00,,,0.00,WSDL version 420,2013-09-09 18:38:00,
2013-09-09 14:47:00,80.5,45.7,29.29,SSW,203,0.0,0.0,30,0.00,,,0.00,WSDL version 420,2013-09-09 18:47:00,
2013-09-09 14:54:00,79.4,45.3,29.26,WSW,239,0.0,0.0,30,0.00,,,0.00,WSDL version 420,2013-09-09 18:54:00,
2013-09-09 15:02:00,79.2,45.1,29.26,SW,221,0.0,0.0,30,0.00,,,0.00,WSDL version 420,2013-09-09 19:02:00,
2013-09-09 15:08:00,78.7,45.6,-100.00,WSW,248,0.0,0.0,31,-99.99,,,-99.99,WSDL version 420,2013-09-09 19:08:00,
2013-09-09 15:13:00,78.1,45.0,29.23,SW,231,0.0,0.0,31,0.00,,,0.00,WSDL version 420,2013-09-09 19:13:00,
2013-09-09 15:19:00,77.9,45.7,29.23,West,279,0.0,0.0,32,0.00,,,0.00,WSDL version 420,2013-09-09 19:19:00,
2013-09-09 15:27:00,77.5,45.4,-100.00,SW,225,0.0,0.0,32,0.00,,,0.00,WSDL version 420,2013-09-09 19:27:00,
2013-09-09 15:33:00,77.4,45.2,-100.00,SW,221,0.0,0.0,32,-99.99,,,-99.99,WSDL version 420,2013-09-09 19:33:00,
2013-09-09 15:41:00,77.4,45.2,-100.00,WSW,255,0.0,0.0,32,0.00,,,0.00,WSDL version 420,2013-09-09 19:41:00,
2013-09-09 15:47:00,77.4,45.8,29.26,SW,229,0.0,0.0,32,0.00,,,0.00,WSDL version 420,2013-09-09 19:47:00,
2013-09-09 15:53:00,77.1,45.0,29.26,WSW,242,0.0,0.0,32,0.00,,,0.00,WSDL version 420,2013-09-09 19:53:00,
2013-09-09 15:59:00,76.6,45.4,29.26,WSW,244,0.0,0.0,33,0.00,,,0.00,WSDL version 420,2013-09-09 19:59:00,
2013-09-09 16:08:00,76.6,45.8,29.26,SSW,210,0.0,0.0,33,-99.99,,,-99.99,WSDL version 420,2013-09-09 20:08:00,
2013-09-09 16:14:00,76.6,45.3,29.26,WSW,248,0.0,0.0,33,0.00,,,0.00,WSDL version 420,2013-09-09 20:14:00,
2013-09-09 16:20:00,76.1,45.3,29.26,WSW,248,0.0,0.0,33,0.00,,,0.00,WSDL version 420,2013-09-09 20:20:00,
2013-09-09 16:25:00,75.7,45.4,29.23,WSW,244,0.0,0.0,34,0.00,,,0.00,WSDL version 420,2013-09-09 20:25:00,
2013-09-09 16:31:00,75.7,45.7,29.23,SW,225,0.0,0.0,35,0.00,,,0.00,WSDL version 420,2013-09-09 20:31:00,
2013-09-09 16:38:00,75.8,46.3,29.23,SW,222,0.0,0.0,35,0.00,,,0.00,WSDL version 420,2013-09-09 20:38:00,
2013-09-09 16:47:00,75.7,46.2,29.23,WSW,242,0.0,0.0,35,0.00,,,0.00,WSDL version 420,2013-09-09 20:47:00,
2013-09-09 16:52:00,75.5,45.9,29.23,West,275,0.0,0.0,35,0.00,,,0.00,WSDL version 420,2013-09-09 20:52:00,
2013-09-09 16:59:00,75.2,45.7,29.21,SSW,212,0.0,0.0,35,0.00,,,0.00,WSDL version 420,2013-09-09 20:59:00,
2013-09-09 17:06:00,75.1,45.7,29.21,SW,216,0.0,0.0,35,-99.99,,,-99.99,WSDL version 420,2013-09-09 21:06:00,
2013-09-09 17:11:00,75.0,46.3,29.21,SW,214,0.0,0.0,36,0.00,,,0.00,WSDL version 420,2013-09-09 21:11:00,
2013-09-09 17:18:00,74.8,46.1,29.21,WSW,248,0.0,0.0,36,0.00,,,0.00,WSDL version 420,2013-09-09 21:18:00,
2013-09-09 17:24:00,74.6,45.9,29.21,SW,225,0.0,0.0,36,0.00,,,0.00,WSDL version 420,2013-09-09 21:24:00,
2013-09-09 17:29:00,74.4,46.5,29.21,SW,225,0.0,0.0,37,0.00,,,0.00,WSDL version 420,2013-09-09 21:29:00,
2013-09-09 17:35:00,74.2,46.3,29.21,SW,221,0.0,0.0,37,0.00,,,0.00,WSDL version 420,2013-09-09 21:35:00,
2013-09-09 17:41:00,73.9,46.0,29.21,SW,214,0.0,0.0,37,0.00,,,0.00,WSDL version 420,2013-09-09 21:41:00,
2013-09-09 17:48:00,73.6,46.4,29.21,SW,225,0.0,0.0,38,0.00,,,0.00,WSDL version 420,2013-09-09 21:48:00,
2013-09-09 17:55:00,73.4,46.3,29.21,SW,221,0.0,0.0,38,0.00,,,0.00,WSDL version 420,2013-09-09 21:55:00,
2013-09-09 18:05:00,73.2,46.8,-100.00,SW,233,0.0,0.0,39,-99.99,,,-99.99,WSDL version 420,2013-09-09 22:05:00,
2013-09-09 18:14:00,73.0,47.2,-100.00,WSW,248,0.0,0.0,40,0.00,,,0.00,WSDL version 420,2013-09-09 22:14:00,
2013-09-09 18:20:00,72.7,47.1,-100.00,SW,225,0.0,0.0,40,0.00,,,0.00,WSDL version 420,2013-09-09 22:20:00,
2013-09-09 18:26:00,72.5,47.5,-100.00,SW,219,0.0,0.0,41,0.00,,,0.00,WSDL version 420,2013-09-09 22:26:00,
2013-09-09 18:32:00,72.5,47.5,-100.00,SW,225,0.0,0.0,41,0.00,,,0.00,WSDL version 420,2013-09-09 22:32:00,
2013-09-09 18:38:00,72.3,47.3,-100.00,SW,225,0.0,0.0,41,-99.99,,,-99.99,WSDL version 420,2013-09-09 22:38:00,
2013-09-09 18:43:00,72.1,47.2,-100.00,SW,225,0.0,0.0,41,0.00,,,0.00,WSDL version 420,2013-09-09 22:43:00,
2013-09-09 18:54:00,72.1,47.2,29.21,SW,225,0.0,0.0,41,0.00,,,0.00,WSDL version 420,2013-09-09 22:54:00,
2013-09-09 19:00:00,72.0,47.6,-100.00,SW,214,0.0,0.0,42,0.00,,,0.00,WSDL version 420,2013-09-09 23:00:00,
2013-09-09 19:06:00,71.8,48.0,-100.00,SW,230,0.0,0.0,43,0.00,,,0.00,WSDL version 420,2013-09-09 23:06:00,
2013-09-09 19:13:00,71.6,47.9,-100.00,SW,225,0.0,0.0,43,-99.99,,,-99.99,WSDL version 420,2013-09-09 23:13:00,
2013-09-09 19:19:00,71.5,48.5,29.18,SW,214,0.0,0.0,44,0.00,,,0.00,WSDL version 420,2013-09-09 23:19:00,
2013-09-09 19:26:00,71.3,48.3,29.21,SW,225,0.0,0.0,44,0.00,,,0.00,WSDL version 420,2013-09-09 23:26:00,
2013-09-09 19:31:00,71.2,48.2,29.21,WSW,240,0.0,0.0,44,0.00,,,0.00,WSDL version 420,2013-09-09 23:31:00,
2013-09-09 19:37:00,71.1,48.1,29.21,SW,225,0.0,0.0,44,0.00,,,0.00,WSDL version 420,2013-09-09 23:37:00,
2013-09-09 19:43:00,70.9,48.0,29.21,WSW,242,0.0,0.0,44,0.00,,,0.00,WSDL version 420,2013-09-09 23:43:00,
2013-09-09 19:48:00,70.9,48.5,29.21,WSW,239,0.0,0.0,45,0.00,,,0.00,WSDL version 420,2013-09-09 23:48:00,
2013-09-09 19:56:00,70.7,48.3,29.21,SW,236,0.0,0.0,45,0.00,,,0.00,WSDL version 420,2013-09-09 23:56:00,
2013-09-09 20:03:00,70.3,48.6,29.21,SW,225,0.0,0.0,46,-99.99,,,-99.99,WSDL version 420,2013-09-10 00:03:00,
2013-09-09 20:09:00,70.3,48.5,29.21,SW,225,0.0,0.0,46,0.00,,,0.00,WSDL version 420,2013-09-10 00:09:00,
2013-09-09 20:17:00,70.0,48.3,29.21,SSW,206,0.0,0.0,46,0.00,,,0.00,WSDL version 420,2013-09-10 00:17:00,
2013-09-09 20:26:00,70.2,48.4,29.21,WSW,248,0.0,3.4,46,0.00,,,0.00,WSDL version 420,2013-09-10 00:26:00,
2013-09-09 20:33:00,70.0,48.3,29.21,SW,229,0.0,2.5,46,-99.99,,,-99.99,WSDL version 420,2013-09-10 00:33:00,
2013-09-09 20:41:00,69.8,48.1,29.21,SW,233,0.0,0.9,46,0.00,,,0.00,WSDL version 420,2013-09-10 00:41:00,
2013-09-09 20:47:00,69.6,47.9,29.21,WSW,248,0.0,0.0,46,0.00,,,0.00,WSDL version 420,2013-09-10 00:47:00,
2013-09-09 20:53:00,69.6,47.9,29.21,SSW,207,0.0,1.1,46,0.00,,,0.00,WSDL version 420,2013-09-10 00:53:00,
2013-09-09 20:58:00,69.4,47.8,29.21,SW,216,0.0,1.1,46,0.00,,,0.00,WSDL version 420,2013-09-10 00:58:00,
2013-09-09 21:06:00,69.3,47.6,-100.00,SW,219,0.0,1.1,46,0.00,,,0.00,WSDL version 420,2013-09-10 01:06:00,
2013-09-09 21:13:00,69.3,48.2,29.21,WSW,248,0.0,0.0,47,0.00,,,0.00,WSDL version 420,2013-09-10 01:13:00,
2013-09-09 21:20:00,69.1,48.0,29.21,SW,222,0.0,0.0,47,0.00,,,0.00,WSDL version 420,2013-09-10 01:20:00,
2013-09-09 21:27:00,69.1,48.0,-100.00,SW,225,0.0,0.0,47,0.00,,,0.00,WSDL version 420,2013-09-10 01:27:00,
2013-09-09 21:32:00,68.9,47.9,29.21,SW,233,0.0,3.1,47,0.00,,,0.00,WSDL version 420,2013-09-10 01:32:00,
2013-09-09 21:38:00,68.9,47.9,-100.00,SSW,212,0.0,3.1,47,0.00,,,0.00,WSDL version 420,2013-09-10 01:38:00,
2013-09-09 21:43:00,68.7,47.7,29.18,WSW,248,0.0,2.7,47,0.00,,,0.00,WSDL version 420,2013-09-10 01:43:00,
2013-09-09 21:51:00,68.7,47.7,-100.00,WSW,242,0.0,2.7,47,0.00,,,0.00,WSDL version 420,2013-09-10 01:51:00,
2013-09-09 21:57:00,68.7,48.3,-100.00,SW,230,0.4,3.8,48,0.00,,,0.00,WSDL version 420,2013-09-10 01:57:00,
2013-09-09 22:03:00,68.6,48.5,-100.00,WSW,248,0.0,3.8,49,0.00,,,0.00,WSDL version 420,2013-09-10 02:03:00,
2013-09-09 22:10:00,68.5,48.6,-100.00,SSW,212,0.0,3.6,49,0.00,,,0.00,WSDL version 420,2013-09-10 02:10:00,
2013-09-09 22:17:00,68.5,49.2,29.21,SW,225,0.0,1.3,50,0.00,,,0.00,WSDL version 420,2013-09-10 02:17:00,
2013-09-09 22:26:00,68.4,49.6,29.21,SW,234,0.0,2.7,51,0.00,,,0.00,WSDL version 420,2013-09-10 02:26:00,
2013-09-09 22:35:00,68.4,49.6,-100.00,SW,234,0.0,3.4,51,0.00,,,0.00,WSDL version 420,2013-09-10 02:35:00,
2013-09-09 22:47:00,68.0,50.0,-100.00,SW,233,0.0,2.5,53,0.00,,,0.00,WSDL version 420,2013-09-10 02:47:00,
2013-09-09 22:55:00,67.8,51.1,29.21,SW,230,0.5,2.9,55,0.00,,,0.00,WSDL version 420,2013-09-10 02:55:00,
2013-09-09 23:03:00,67.8,51.3,-100.00,WSW,248,1.3,2.7,55,0.00,,,0.00,WSDL version 420,2013-09-10 03:03:00,
2013-09-09 23:12:00,67.6,51.9,29.21,WSW,240,0.0,2.7,57,0.00,,,0.00,WSDL version 420,2013-09-10 03:12:00,
2013-09-09 23:21:00,67.3,52.0,29.21,SSW,195,0.4,2.9,58,0.00,,,0.00,WSDL version 420,2013-09-10 03:21:00,
2013-09-09 23:28:00,67.1,52.3,29.18,WSW,257,0.8,2.9,59,0.00,,,0.00,WSDL version 420,2013-09-10 03:28:00,
2013-09-09 23:37:00,67.0,52.9,29.18,WSW,257,0.4,2.5,60,0.00,,,0.00,WSDL version 420,2013-09-10 03:37:00,
2013-09-09 23:43:00,66.9,53.0,29.21,SW,235,0.5,4.5,61,0.00,,,0.00,WSDL version 420,2013-09-10 03:43:00,
2013-09-09 23:53:00,66.7,53.8,-100.00,WSW,248,0.6,2.7,63,0.00,,,0.00,WSDL version 420,2013-09-10 03:53:00,